Location: Amboy Crater
(34.5568°N, 115.7811°W)
Time: 00:17:51
(UTC-07:00)

Hubble Space Telescope - Pass Details

Date: 13 August 2024
Orbit: 505 x 509 km, 28.5° (Epoch: 15 September)

Event Time Altitude Azimuth Distance (km) Brightness Sun altitude
Exits shadow 03:57:21 13° 137° (SE) 1,526 3.1 -23.5°
Drops below altitude 10° 03:58:18 10° 124° (ESE) 1,714 3.5 -23.4°
Sets 04:01:16 0° 101° (E) 2,603 4.9 -22.9°
